Pomona, MO

11:27 AM CDT on August 27, 2016 (GMT -0500)
West Plains Municipal

Weather History for KUNO - May, 2013

Change the Weather History Date:

Monday, May 13, 2013

  Actual Average Record
Temperature  
Mean Temperature 59 °F 65 °F  
Max Temperature 74 °F 76 °F 90 °F (1984)
Min Temperature 44 °F 53 °F 33 °F (1960)
Degree Days  
Heating Degree Days 6 3  
Month to date heating degree days 112 48  
Since 1 July heating degree days 4474 4310  
Cooling Degree Days 0 3  
Month to date cooling degree days 7 23  
Year to date cooling degree days 26 51  
Growing Degree Days 8 (Base 50)    
Moisture  
Dew Point 40 °F    
Average Humidity 57    
Maximum Humidity 83    
Minimum Humidity 31    
Precipitation  
Precipitation 0.00 in 0.16 in 1.47 in (1981)
Month to date precipitation 1.57 2.50  
Year to date precipitation 17.85 16.83  
Sea Level Pressure  
Sea Level Pressure 30.17 in    
Wind  
Wind Speed 4 mph (SE)    
Max Wind Speed 14 mph    
Max Gust Speed 21 mph    
Visibility 10 miles    
Events      
T = Trace of Precipitation, MM = Missing Value Source: NWS Daily Summary

Daily Weather History Graph

Daily Weather History Graph

Search for Another Location

Airport or City:

Trip Planner

Search our weather history database for the weather conditions in past years. The results will help you decide how hot, cold, wet, or windy it might be!

Date:

Astronomy

May. 13, 2013 Rise Set
Actual Time 6:01 AM CDT 8:07 PM CDT
Civil Twilight 5:32 AM CDT 8:35 PM CDT
Nautical Twilight 4:57 AM CDT 9:11 PM CDT
Astronomical Twilight 4:19 AM CDT 9:49 PM CDT
Moon 8:48 AM CDT (5/13) 11:16 PM CDT (5/13)
Length of Visible Light 15h 03m
Length of Day
14h 05m
Waxing Crescent, 12% of the Moon is Illuminated
May 13
Waxing Crescent
May 17
First Quarter
May 24
Full
May 31
Last Quarter
Jun 8
New

Hourly Weather History & Observations

Time (CDT) Temp. Dew Point Humidity Pressure Visibility Wind Dir Wind Speed Gust Speed Precip Events Conditions
12:53 AM 48.0 °F 39.9 °F 74% 30.20 in 10.0 mi Calm Calm - N/A   Overcast
1:53 AM 48.9 °F 35.1 °F 59% 30.19 in 10.0 mi Calm Calm - N/A   Partly Cloudy
2:53 AM 48.9 °F 35.1 °F 59% 30.19 in 10.0 mi Calm Calm - N/A   Overcast
3:53 AM 48.0 °F 39.0 °F 71% 30.19 in 10.0 mi Calm Calm - N/A   Overcast
4:53 AM 44.1 °F 39.0 °F 82% 30.20 in 10.0 mi Calm Calm - N/A   Mostly Cloudy
5:53 AM 45.0 °F 39.9 °F 82% 30.21 in 10.0 mi Calm Calm - N/A   Mostly Cloudy
6:53 AM 46.0 °F 39.9 °F 79% 30.23 in 10.0 mi Calm Calm - N/A   Scattered Clouds
7:53 AM 53.1 °F 32.0 °F 45% 30.23 in 10.0 mi SSE 3.5 mph - N/A   Clear
8:53 AM 57.9 °F 30.9 °F 36% 30.24 in 10.0 mi SE 6.9 mph - N/A   Clear
9:53 AM 61.0 °F 32.0 °F 34% 30.25 in 10.0 mi SSE 9.2 mph - N/A   Mostly Cloudy
10:53 AM 64.0 °F 34.0 °F 33% 30.24 in 10.0 mi SE 8.1 mph - N/A   Clear
11:53 AM 66.9 °F 36.0 °F 32% 30.21 in 10.0 mi ESE 8.1 mph - N/A   Clear
12:53 PM 68.0 °F 39.0 °F 35% 30.19 in 10.0 mi SSE 9.2 mph - N/A   Clear
1:53 PM 70.0 °F 39.0 °F 32% 30.16 in 10.0 mi SE 9.2 mph 17.3 mph N/A   Clear
3:53 PM 73.0 °F 42.1 °F 33% 30.12 in 10.0 mi SSE 10.4 mph 16.1 mph N/A   Clear
4:53 PM 73.0 °F 43.0 °F 34% 30.11 in 10.0 mi South 5.8 mph - N/A   Clear
5:53 PM 73.9 °F 45.0 °F 35% 30.10 in 10.0 mi SE 8.1 mph - N/A   Clear
7:53 PM 68.0 °F 48.0 °F 49% 30.09 in 10.0 mi SE 3.5 mph - N/A   Clear
8:53 PM 64.9 °F 48.0 °F 54% 30.08 in 10.0 mi SE 4.6 mph - N/A   Clear
9:53 PM 62.1 °F 48.0 °F 60% 30.09 in 10.0 mi Calm Calm - N/A   Clear
10:53 PM 60.1 °F 48.9 °F 67% 30.08 in 10.0 mi Calm Calm - N/A   Clear
11:53 PM 59.0 °F 48.9 °F 69% 30.06 in 10.0 mi Calm Calm - N/A   Clear